Flag for Israel Weather past 2 weeks in Kfar Saba, Israel

Now
88 °F

Sunny.


Feels Like: 98 °F
Forecast: 78 / 92 °F
Wind: 10 mph from West

Location: Dov Airport

Current Time: Jul 31, 2015 at 5:11:47 PM

Latest Report: Jul 31, 2015 at 3:50 PM


Visibility: 10 mi

Pressure: 29.71 "Hg

Humidity: 66%

Dew point: 75 °F

Location of Kfar SabaLocation

Historic Weather in Kfar Saba — Graph

°F

Kfar Saba temperature yesterday

Maximum temperature yesterday: 86 °F (at 3:50 PM)
Minimum temperature yesterday: 73 °F (at 5:50 AM)
Average temperature yesterday: 81 °F

Past Weeks' High & Low Weather Summary

 TemperatureHumidityPressure
High88 °F (Jul 23, 2:50 PM)89% (Jul 18, 6:50 AM)29.83 "Hg (Jul 18, 6:50 AM)
Low73 °F (Jul 17, 5:50 AM)52% (Jul 23, 2:50 PM)29.65 "Hg (Jul 20, 5:50 AM)
Average82 °F73%29.71 "Hg
* Reported Jul 16 3:50 PM — Jul 31 3:50 PM, Kfar Saba, Weather by CustomWeather, © 2015

Note: Actual official high and low records may vary slightly from our data, if they occured in-between our weather recording intervals... More about our weather records

Advertising

Kfar Saba weather history for previous 24 hours

 ConditionsComfort  
Time TempWeatherWind HumidityBarometerVisibility
3:50 PM
Fri, Jul 31
88 °FSunny.10 mph66%29.71 "Hg10 mi
2:50 PM88 °FSunny.9 mph66%29.71 "Hg10 mi
1:50 PM86 °FSunny.13 mph70%29.71 "Hg10 mi
12:50 PM88 °FSunny.12 mph66%29.71 "Hg10 mi
11:50 AM86 °FSunny.10 mph70%29.71 "Hg10 mi
10:50 AM86 °FSunny.9 mph66%29.71 "Hg10 mi
9:50 AM86 °FSunny.8 mph62%29.71 "Hg10 mi
8:50 AM84 °FPassing clouds.5 mph66%29.71 "HgN/A
7:50 AM81 °FPassing clouds.3 mph58%29.71 "HgN/A
6:50 AM77 °FPassing clouds.6 mph65%29.68 "HgN/A
5:50 AM77 °FPassing clouds.5 mph74%29.68 "HgN/A
12:50 AM81 °FClear.1 mph79%29.71 "Hg10 mi
11:50 PM
Thu, Jul 30
81 °FClear.3 mph79%29.71 "Hg10 mi
10:50 PM81 °FClear.5 mph79%29.71 "Hg10 mi
9:50 PM82 °FClear.3 mph74%29.68 "Hg10 mi
8:50 PM82 °FClear.3 mph70%29.68 "Hg10 mi
7:50 PM82 °FSunny.1 mph70%29.68 "Hg10 mi
6:50 PM84 °FSunny.3 mph66%29.68 "Hg10 mi
5:50 PM84 °FSunny.8 mph70%29.68 "Hg10 mi
Weather by CustomWeather, © 2015

See weather overviewHow to use our weather pages